TimeEDT,TemperatureF,Dew PointF,Humidity,Sea Level PressureIn,VisibilityMPH,Wind Direction,Wind SpeedMPH,Gust SpeedMPH,PrecipitationIn,Events,Conditions,WindDirDegrees,DateUTC
12:56 AM,70.0,66.0,87,30.13,7.0,Calm,Calm,-,N/A,,Clear,0,2013-08-21 04:56:00
1:56 AM,68.0,64.9,90,30.12,7.0,Calm,Calm,-,N/A,,Clear,0,2013-08-21 05:56:00
2:56 AM,64.9,63.0,93,30.12,6.0,Calm,Calm,-,N/A,,Clear,0,2013-08-21 06:56:00
3:56 AM,64.0,63.0,96,30.12,4.0,Calm,Calm,-,N/A,,Clear,0,2013-08-21 07:56:00
4:56 AM,63.0,62.1,97,30.13,5.0,Calm,Calm,-,N/A,,Clear,0,2013-08-21 08:56:00
5:56 AM,64.0,62.1,93,30.14,5.0,Calm,Calm,-,N/A,,Clear,0,2013-08-21 09:56:00
6:05 AM,62.6,62.6,100,30.14,1.2,Calm,Calm,-,N/A,,Clear,0,2013-08-21 10:05:00
6:10 AM,62.6,60.8,94,30.14,0.2,Calm,Calm,-,N/A,Fog,Fog,0,2013-08-21 10:10:00
6:19 AM,62.6,60.8,94,30.15,1.0,Calm,Calm,-,N/A,,Clear,0,2013-08-21 10:19:00
6:38 AM,64.4,62.6,94,30.15,5.0,Calm,Calm,-,N/A,,Clear,0,2013-08-21 10:38:00
6:56 AM,64.9,63.0,93,30.15,5.0,Calm,Calm,-,N/A,,Clear,0,2013-08-21 10:56:00
7:56 AM,71.1,66.0,84,30.16,5.0,Calm,Calm,-,N/A,,Haze,0,2013-08-21 11:56:00
8:56 AM,73.9,66.9,79,30.16,6.0,Calm,Calm,-,N/A,,Haze,0,2013-08-21 12:56:00
9:56 AM,73.9,66.9,79,30.15,6.0,South,5.8,-,N/A,,Haze,190,2013-08-21 13:56:00
10:35 AM,75.2,66.2,73,30.15,6.0,North,-9999.0,-,N/A,,Haze,0,2013-08-21 14:35:00
10:56 AM,77.0,66.0,69,30.15,7.0,SSW,6.9,-,N/A,,Clear,210,2013-08-21 14:56:00
11:56 AM,79.0,64.9,62,30.15,6.0,SW,8.1,-,N/A,,Haze,220,2013-08-21 15:56:00
12:56 PM,80.1,66.0,62,30.14,6.0,SW,11.5,-,N/A,,Haze,230,2013-08-21 16:56:00
1:56 PM,82.0,64.9,56,30.12,7.0,SW,11.5,-,N/A,,Clear,230,2013-08-21 17:56:00
2:56 PM,82.0,64.0,54,30.11,7.0,SW,10.4,-,N/A,,Clear,220,2013-08-21 18:56:00
3:56 PM,82.0,64.0,54,30.09,8.0,SW,9.2,-,N/A,,Clear,220,2013-08-21 19:56:00
4:56 PM,82.9,62.1,49,30.09,8.0,WSW,9.2,-,N/A,,Clear,240,2013-08-21 20:56:00
5:56 PM,81.0,63.0,54,30.07,7.0,SSW,8.1,-,N/A,,Clear,200,2013-08-21 21:56:00
6:56 PM,77.0,63.0,62,30.06,7.0,WSW,4.6,-,N/A,,Clear,250,2013-08-21 22:56:00
7:56 PM,73.0,66.0,79,30.07,6.0,Calm,Calm,-,N/A,,Haze,0,2013-08-21 23:56:00
8:56 PM,73.9,66.0,76,30.08,7.0,SW,8.1,-,N/A,,Clear,230,2013-08-22 00:56:00
9:56 PM,73.0,66.0,79,30.08,7.0,WSW,4.6,-,N/A,,Clear,250,2013-08-22 01:56:00
10:56 PM,73.0,66.0,79,30.08,7.0,Calm,Calm,-,N/A,,Clear,0,2013-08-22 02:56:00
11:56 PM,70.0,66.9,90,30.06,5.0,Calm,Calm,-,N/A,,Clear,0,2013-08-22 03:56:00